[[{"header":{"parameterUnit":"m.s-1","parameterCategory":2,"la1":30.2992,"la2":30.254,"lo1":-89.0895,"lo2":-89.0443,"dy":0.0025,"dx":0.0025,"nx":19,"ny":19,"refTime":"2026-03-06T03:00:00:Z","depth":"0","parameterNumber":2,"parameterNumberName":"U-component_of_CURRENTS"},"data":[0,0,0,0.1373,0.1374,0.137,0.137,0.1289,0.1288,0,0,0,0,0,0,0,0,0,0,0,0.1369,0.137,0.1373,0.1374,0.137,0.137,0.1289,0.1288,0,0,0,0,0,0,0,0,0,0,0,0.1369,0.137,0.137,0.1374,0.137,0.137,0.1289,0.1306,0,0,0,0,0,0,0,0,0,0,0.1317,0.1332,0.1369,0.137,0.1374,0.137,0.137,0.1307,0.1305,0.1274,0,0.1287,0,0.1295,0.1282,0.1282,0,0,0,0.1354,0.1334,0.1338,0.137,0.1374,0.137,0.1366,0.1306,0.1303,0.1271,0.1286,0.1283,0.1293,0.1282,0.1282,0.1297,0.1298,0,0,0.1354,0.1358,0.134,0.1336,0.1388,0.1366,0.1366,0.1305,0.1304,0.1286,0.1282,0.1292,0.1281,0.1281,0.1296,0.1297,0,0,0,0.1368,0.1358,0.1364,0.1339,0.135,0.1367,0.1367,0.1306,0.1311,0.1281,0.1291,0.1281,0.128,0.1296,0.1297,0.1396,0,0,0,0.1367,0.1368,0.1365,0.1366,0.1352,0.1339,0.1369,0.1314,0.1308,0.1291,0.1281,0.1279,0.1295,0.1296,0.1391,0.1416,0,0,0,0.1367,0.1368,0.1373,0.1366,0.1375,0.1341,0.1341,0.1313,0.1315,0.1282,0.1279,0.1294,0.1296,0.1387,0.141,0.1467,0,0,0,0.1361,0.1376,0.1374,0.1398,0.1375,0.1403,0.1341,0.1347,0.1329,0.1281,0.1295,0.1297,0.1386,0.1406,0.1463,0.1476,0.1496,0,0,0.1376,0.1378,0.1395,0.1393,0.1421,0.1401,0.1437,0.1384,0.1345,0.1303,0.1304,0.1393,0.1409,0.1466,0.1582,0.1599,0,0,0,0.1397,0.1402,0.1415,0.143,0.1451,0.1471,0.1438,0.1441,0.1431,0.1346,0.1403,0.1409,0.1443,0.1442,0.1456,0.1473,0.1305,0.1305,0.1305,0.1389,0.1409,0.1434,0.1458,0.1486,0.1515,0.1542,0.1537,0.1488,0.1519,0.1499,0.1618,0.162,0.163,0.1649,0.1517,0.1518,0.1518,0.1518,0.1399,0.1406,0.1445,0.1476,0.1517,0.1553,0.1614,0.1619,0.1667,0.1609,0.1637,0.1556,0.1651,0.1665,0.1525,0.1524,0.1523,0.1522,0.1522,0.1377,0.1382,0.1413,0.1453,0.1508,0.1565,0.1637,0.1686,0.1736,0.178,0.1761,0.1758,0.1761,0.1795,0.1795,0.1796,0.1796,0.1796,0.1797,0.1333,0.1364,0.1371,0.142,0.1443,0.1514,0.1641,0.1713,0.1825,0.1859,0.1859,0.1813,0.1701,0.168,0.1803,0.1802,0.1801,0.18,0.18,0.1288,0.1296,0.1302,0.1316,0.1373,0.1408,0.1556,0.1743,0.1855,0.1917,0.1976,0.1904,0.1867,0.1855,0.1836,0.1992,0.1992,0.1992,0.1992,0.1241,0.1249,0.1236,0.1236,0.1275,0.1353,0.1466,0.1664,0.1913,0.2022,0.2067,0.2017,0.2009,0.1976,0.1961,0.1943,0.2123,0.2123,0.2123,0.1205,0.1208,0.1176,0.1182,0.1214,0.1301,0.1369,0.1544,0.1931,0.2129,0.2098,0.2092,0.2016,0.2,0.1938,0.1916,0.188,0,0]},{"header":{"parameterUnit":"m.s-1","parameterCategory":2,"la1":30.2992,"la2":30.254,"lo1":-89.0895,"lo2":-89.0443,"dy":0.0025,"dx":0.0025,"nx":19,"ny":19,"refTime":"2026-03-06T03:00:00:Z","depth":"0","parameterNumber":3,"parameterNumberName":"V-component_of_CURRENTS"},"data":[0,0,0,-0.0081,-0.0082,-0.0142,-0.0143,-0.0198,-0.0198,0,0,0,0,0,0,0,0,0,0,0,-0.0057,-0.0057,-0.0081,-0.0082,-0.0142,-0.0143,-0.0198,-0.0198,0,0,0,0,0,0,0,0,0,0,0,-0.0057,-0.0057,-0.0057,-0.0082,-0.0142,-0.0143,-0.0198,-0.0159,0,0,0,0,0,0,0,0,0,0,-0.0104,-0.0082,-0.0057,-0.0057,-0.0083,-0.0142,-0.0143,-0.0157,-0.0161,-0.0162,0,-0.0167,0,-0.0183,-0.0201,-0.0201,0,0,0,-0.0088,-0.0079,-0.0095,-0.0057,-0.0083,-0.0142,-0.0117,-0.016,-0.0164,-0.0168,-0.0168,-0.0171,-0.0184,-0.0201,-0.0201,-0.0226,-0.0226,0,0,-0.0084,-0.007,-0.0092,-0.0098,-0.0093,-0.0115,-0.0118,-0.0163,-0.0164,-0.0169,-0.0172,-0.0184,-0.0201,-0.0202,-0.0226,-0.0226,0,0,0,-0.0071,-0.0067,-0.0083,-0.0095,-0.0107,-0.0116,-0.0121,-0.0163,-0.0167,-0.0173,-0.0185,-0.0202,-0.0202,-0.0226,-0.0226,-0.0163,0,0,0,-0.0069,-0.0059,-0.0081,-0.0074,-0.0106,-0.0139,-0.0119,-0.0164,-0.017,-0.0185,-0.0202,-0.0203,-0.0226,-0.0226,-0.0165,-0.0098,0,0,0,-0.0055,-0.0058,-0.0063,-0.0073,-0.0097,-0.0138,-0.0146,-0.0166,-0.0177,-0.0201,-0.0203,-0.0227,-0.0226,-0.0166,-0.0103,-0.0031,0,0,0,-0.0042,-0.004,-0.0063,-0.0066,-0.0096,-0.0121,-0.0146,-0.0171,-0.019,-0.0202,-0.0226,-0.0226,-0.0167,-0.0105,-0.0034,0.0049,0.0071,0,0,-0.003,-0.0038,-0.004,-0.0062,-0.0065,-0.0113,-0.0116,-0.0152,-0.0189,-0.0211,-0.0212,-0.0164,-0.0103,-0.0031,0.0052,0.0075,0,0,0,-0.003,-0.0024,-0.0033,-0.004,-0.007,-0.007,-0.0123,-0.0141,-0.0166,-0.02,-0.0181,-0.0144,-0.01,-0.0059,-0.0041,-0.0138,-0.0226,-0.0226,-0.0226,0.0015,0.0001,0.0011,-0.0002,-0.0014,-0.0047,-0.0046,-0.0079,-0.0139,-0.0143,-0.0106,-0.0023,0.0019,0.0034,-0.0069,-0.0143,-0.0143,-0.0143,-0.0143,0.0055,0.0069,0.0062,0.0071,0.0065,0.0067,0.0039,0.0008,0.0015,-0.0062,-0.0024,-0.0012,0.0057,-0.0059,-0.0139,-0.014,-0.014,-0.0141,-0.0141,0.0097,0.0106,0.0112,0.0141,0.0172,0.0153,0.0231,0.0176,0.0108,0.0134,0.0177,0.0176,0.009,0.0142,0.0143,0.0143,0.0144,0.0144,0.0145,0.0141,0.0148,0.0189,0.0216,0.0255,0.0318,0.0342,0.0373,0.0353,0.0285,0.0285,0.011,0.0065,0.0073,0.0154,0.0152,0.0151,0.015,0.015,0.0198,0.0205,0.0271,0.0313,0.0408,0.0523,0.0542,0.0621,0.0617,0.0623,0.0344,0.0366,0.0368,0.0353,0.0367,0.052,0.052,0.052,0.052,0.0246,0.0248,0.0345,0.0426,0.0542,0.0617,0.0793,0.0814,0.0653,0.0537,0.0438,0.0352,0.0342,0.0335,0.032,0.033,0.0469,0.0469,0.0469,0.0296,0.0318,0.0397,0.0466,0.0593,0.0744,0.0899,0.0945,0.0678,0.045,0.0288,0.029,0.014,0.0131,0.0094,0.0082,0.0088,0,0]}],[{"header":{"parameterUnit":"m.s-1","parameterCategory":2,"la1":30.2992,"la2":30.254,"lo1":-89.0895,"lo2":-89.0443,"dy":0.0025,"dx":0.0025,"nx":19,"ny":19,"refTime":"2026-03-06T03:00:00:Z","depth":"2","parameterNumber":2,"parameterNumberName":"U-component_of_CURRENTS"},"data":[0,0,0,0.1494,0.1495,0.152,0.152,0.1483,0.1483,0,0,0,0,0,0,0,0,0,0,0,0.1481,0.1482,0.1494,0.1495,0.152,0.152,0.1483,0.1483,0,0,0,0,0,0,0,0,0,0,0,0.1481,0.1482,0.1482,0.1496,0.1521,0.152,0.1483,0.1477,0,0,0,0,0,0,0,0,0,0,0.1459,0.1469,0.1482,0.1482,0.1496,0.1521,0.152,0.1477,0.1477,0.1458,0,0.1477,0,0.1489,0.1481,0.1481,0,0,0,0.1476,0.147,0.1476,0.1483,0.1496,0.1521,0.1504,0.1478,0.1478,0.1458,0.1477,0.1476,0.1488,0.1481,0.148,0.1524,0.1525,0,0,0.1474,0.148,0.1476,0.1477,0.1521,0.1503,0.1505,0.1478,0.1484,0.1476,0.1475,0.1487,0.148,0.148,0.1524,0.1525,0,0,0,0.1484,0.148,0.1488,0.1478,0.1493,0.1504,0.1506,0.1485,0.1489,0.1475,0.1487,0.148,0.148,0.1523,0.1524,0.1596,0,0,0,0.1482,0.1486,0.1487,0.149,0.1495,0.1501,0.1514,0.149,0.1488,0.1487,0.148,0.1479,0.1522,0.1524,0.1592,0.1608,0,0,0,0.1477,0.1486,0.1494,0.1491,0.1511,0.1502,0.1504,0.149,0.1496,0.1481,0.1479,0.1522,0.1523,0.1589,0.1603,0.1656,0,0,0,0.1473,0.1495,0.1495,0.153,0.1511,0.1549,0.1504,0.1522,0.1516,0.148,0.1522,0.1524,0.1588,0.16,0.1652,0.1619,0.1632,0,0,0.1494,0.1498,0.152,0.1521,0.1557,0.1543,0.1588,0.1558,0.1534,0.152,0.1522,0.1593,0.1603,0.1655,0.172,0.173,0,0,0,0.1523,0.1529,0.1546,0.1568,0.1596,0.1619,0.1603,0.1612,0.1617,0.1544,0.1609,0.1612,0.1643,0.1617,0.1625,0.1532,0.1532,0.1532,0.1532,0.1516,0.1538,0.157,0.1597,0.163,0.1668,0.1696,0.1701,0.1669,0.1698,0.1683,0.1786,0.176,0.1765,0.1705,0.1705,0.1705,0.1705,0.1706,0.1526,0.1537,0.1578,0.1615,0.1658,0.1698,0.1764,0.1771,0.182,0.1775,0.1802,0.1708,0.1778,0.1712,0.171,0.171,0.1709,0.1709,0.1708,0.1501,0.1509,0.1542,0.1587,0.1644,0.1706,0.1768,0.1819,0.1871,0.1906,0.1871,0.1868,0.1816,0.1924,0.1924,0.1924,0.1925,0.1925,0.1925,0.1455,0.1488,0.1497,0.1551,0.1575,0.1644,0.1762,0.1824,0.1915,0.194,0.194,0.1859,0.1852,0.1829,0.193,0.1929,0.1929,0.1928,0.1928,0.1412,0.1421,0.1427,0.1442,0.1499,0.1525,0.1662,0.181,0.1907,0.1953,0.1964,0.1961,0.1932,0.1923,0.1902,0.2017,0.2017,0.2016,0.2016,0.1367,0.1377,0.1361,0.1359,0.1393,0.1465,0.1529,0.1655,0.1826,0.1883,0.1888,0.1821,0.1821,0.178,0.1775,0.1749,0.1823,0.1823,0.1822,0.1335,0.1335,0.13,0.1304,0.1331,0.14,0.1413,0.1446,0.1627,0.181,0.1807,0.2013,0.1927,0.1922,0.1865,0.1855,0.1815,0,0]},{"header":{"parameterUnit":"m.s-1","parameterCategory":2,"la1":30.2992,"la2":30.254,"lo1":-89.0895,"lo2":-89.0443,"dy":0.0025,"dx":0.0025,"nx":19,"ny":19,"refTime":"2026-03-06T03:00:00:Z","depth":"2","parameterNumber":3,"parameterNumberName":"V-component_of_CURRENTS"},"data":[0,0,0,-0.0166,-0.0167,-0.0213,-0.0213,-0.0268,-0.0268,0,0,0,0,0,0,0,0,0,0,0,-0.0148,-0.0148,-0.0166,-0.0167,-0.0213,-0.0213,-0.0268,-0.0268,0,0,0,0,0,0,0,0,0,0,0,-0.0148,-0.0148,-0.0148,-0.0167,-0.0213,-0.0213,-0.0268,-0.0236,0,0,0,0,0,0,0,0,0,0,-0.0193,-0.0173,-0.0148,-0.0148,-0.0167,-0.0213,-0.0213,-0.0235,-0.0238,-0.0244,0,-0.0244,0,-0.0255,-0.0271,-0.0271,0,0,0,-0.0175,-0.017,-0.0182,-0.0148,-0.0167,-0.0212,-0.0194,-0.0237,-0.024,-0.0248,-0.0245,-0.0247,-0.0256,-0.0272,-0.0272,-0.0296,-0.0296,0,0,-0.0172,-0.016,-0.0179,-0.0184,-0.0171,-0.0193,-0.0196,-0.0239,-0.024,-0.0245,-0.0249,-0.0257,-0.0272,-0.0272,-0.0296,-0.0296,0,0,0,-0.0159,-0.0158,-0.0169,-0.0182,-0.0189,-0.0194,-0.0197,-0.0238,-0.0241,-0.0249,-0.0257,-0.0272,-0.0273,-0.0296,-0.0296,-0.023,0,0,0,-0.0158,-0.015,-0.0167,-0.0161,-0.0188,-0.0214,-0.0195,-0.0238,-0.0243,-0.0257,-0.0272,-0.0273,-0.0296,-0.0296,-0.0232,-0.0176,0,0,0,-0.0147,-0.0149,-0.0151,-0.016,-0.0177,-0.0214,-0.022,-0.024,-0.0248,-0.0271,-0.0273,-0.0296,-0.0296,-0.0234,-0.018,-0.0131,0,0,0,-0.0138,-0.0128,-0.0151,-0.0146,-0.0176,-0.0192,-0.022,-0.0241,-0.0259,-0.0272,-0.0296,-0.0296,-0.0234,-0.0183,-0.0134,-0.0092,-0.0076,0,0,-0.0117,-0.0125,-0.0122,-0.0144,-0.014,-0.0187,-0.0184,-0.0221,-0.0259,-0.0283,-0.0284,-0.0231,-0.0181,-0.0131,-0.0085,-0.0068,0,0,0,-0.0111,-0.0102,-0.0109,-0.0111,-0.0137,-0.0139,-0.0188,-0.0207,-0.0233,-0.0268,-0.0248,-0.0217,-0.0188,-0.0171,-0.0158,-0.0296,-0.0296,-0.0296,-0.0296,-0.0059,-0.0071,-0.0056,-0.0069,-0.0078,-0.011,-0.0113,-0.0148,-0.0204,-0.0208,-0.0177,-0.0108,-0.0091,-0.008,-0.0207,-0.0207,-0.0206,-0.0206,-0.0206,-0.0011,0.0004,-0.0004,0.0009,-0.0,0.0003,-0.0031,-0.0062,-0.0067,-0.0132,-0.0108,-0.0118,-0.0061,-0.0201,-0.0202,-0.0203,-0.0203,-0.0204,-0.0204,0.0032,0.0041,0.0048,0.0078,0.0105,0.0083,0.0134,0.0082,0.0018,0.0036,0.004,0.0039,-0.0041,0.0037,0.0037,0.0038,0.0038,0.0038,0.0039,0.0074,0.0083,0.0121,0.0148,0.018,0.0225,0.0226,0.0234,0.0196,0.0136,0.0135,-0.0026,-0.0034,-0.0028,0.0046,0.0044,0.0043,0.0043,0.0042,0.013,0.0135,0.0195,0.0231,0.0303,0.0383,0.0379,0.0402,0.0385,0.0377,0.0189,0.0183,0.0174,0.0162,0.0172,0.0293,0.0293,0.0293,0.0293,0.0174,0.0176,0.0257,0.0319,0.0402,0.0451,0.056,0.0547,0.045,0.0367,0.0364,0.0306,0.0294,0.0286,0.0272,0.0282,0.0432,0.0432,0.0432,0.0219,0.0235,0.0299,0.0349,0.0436,0.054,0.0641,0.0648,0.0504,0.0436,0.0366,0.0307,0.0208,0.0195,0.0168,0.0151,0.016,0,0]}],[{"header":{"parameterUnit":"m.s-1","parameterCategory":2,"la1":30.2992,"la2":30.254,"lo1":-89.0895,"lo2":-89.0443,"dy":0.0025,"dx":0.0025,"nx":19,"ny":19,"refTime":"2026-03-06T03:00:00:Z","depth":"4","parameterNumber":2,"parameterNumberName":"U-component_of_CURRENTS"},"data":[0,0,0,0.1006,0.1008,0.1098,0.1099,0.1169,0.117,0,0,0,0,0,0,0,0,0,0,0,0.0977,0.0978,0.1005,0.1008,0.1098,0.1099,0.1169,0.117,0,0,0,0,0,0,0,0,0,0,0,0.0977,0.0978,0.0979,0.1008,0.1098,0.1099,0.1169,0.1111,0,0,0,0,0,0,0,0,0,0,0.1029,0.1009,0.0978,0.0979,0.1009,0.1098,0.1099,0.1109,0.1115,0.1116,0,0.1138,0,0.1155,0.1174,0.1174,0,0,0,0.1006,0.1004,0.103,0.0979,0.101,0.1098,0.1057,0.1113,0.1119,0.1123,0.1139,0.1142,0.1156,0.1174,0.1174,0.1268,0.1269,0,0,0.1001,0.099,0.1025,0.1034,0.1043,0.1054,0.106,0.1117,0.1126,0.114,0.1144,0.1157,0.1174,0.1175,0.1268,0.1269,0,0,0,0.0988,0.0987,0.1012,0.1031,0.1051,0.1057,0.1063,0.1124,0.1133,0.1145,0.1158,0.1175,0.1175,0.1267,0.1268,0.1303,0,0,0,0.0985,0.0979,0.101,0.1004,0.1051,0.1095,0.1069,0.1129,0.1136,0.1158,0.1175,0.1176,0.1267,0.1268,0.1301,0.1315,0,0,0,0.0971,0.0978,0.0992,0.1003,0.1044,0.1094,0.1107,0.1131,0.1144,0.1174,0.1176,0.1266,0.1267,0.1299,0.1311,0.1351,0,0,0,0.0952,0.0967,0.0992,0.1017,0.1043,0.1097,0.1107,0.1153,0.118,0.1175,0.1267,0.1268,0.1298,0.1309,0.1349,0.1182,0,0,0,0.0954,0.0968,0.0982,0.1006,0.1049,0.1084,0.1143,0.1185,0.1202,0.1242,0.1245,0.1302,0.1311,0.135,0.1268,0,0,0,0,0.0971,0.0983,0.1,0.1037,0.108,0.1141,0.1184,0.1215,0.1279,0.1227,0.1321,0.1326,0.1349,0.1247,0.1275,0.1275,0.1275,0.1274,0.1274,0.0947,0.0979,0.101,0.106,0.1105,0.1186,0.1241,0.1297,0.1302,0.1347,0.1369,0.1442,0.1336,0.1386,0.1386,0.1387,0.1387,0.1387,0.1387,0.0945,0.0959,0.1023,0.1068,0.1143,0.121,0.1311,0.1345,0.1436,0.1421,0.1442,0.1308,0.1391,0.139,0.139,0.1389,0.1389,0.1388,0.1388,0.0915,0.0927,0.0976,0.1053,0.1145,0.1239,0.1326,0.141,0.147,0.151,0.141,0.1475,0.1456,0.1528,0.1529,0.1529,0.1529,0.1529,0.1529,0.0857,0.0905,0.0951,0.1039,0.1101,0.12,0.1346,0.1405,0.1489,0.1439,0.1529,0.149,0.1485,0.1465,0.1533,0.1533,0.1532,0.1532,0.1531,0.0808,0.0841,0.0899,0.0957,0.108,0.1131,0.1278,0.1353,0.1408,0.1409,0.1401,0.1406,0.1379,0.1378,0.1352,0.1389,0.1387,0.1386,0,0.0766,0.0788,0.0865,0.0934,0.0996,0.1092,0.1123,0.121,0.1293,0.1247,0.1416,0.1404,0.1407,0.1373,0.1369,0.1336,0,0,0,0.0739,0.0772,0.0808,0.0892,0.0956,0.1026,0.1126,0.1125,0.1266,0.128,0.1338,0.1351,0.1463,0.1545,0.1517,0.1511,0.1477,0,0]},{"header":{"parameterUnit":"m.s-1","parameterCategory":2,"la1":30.2992,"la2":30.254,"lo1":-89.0895,"lo2":-89.0443,"dy":0.0025,"dx":0.0025,"nx":19,"ny":19,"refTime":"2026-03-06T03:00:00:Z","depth":"4","parameterNumber":3,"parameterNumberName":"V-component_of_CURRENTS"},"data":[0,0,0,-0.0079,-0.0079,-0.0085,-0.0085,-0.0069,-0.0069,0,0,0,0,0,0,0,0,0,0,0,-0.0078,-0.0078,-0.0079,-0.0079,-0.0085,-0.0085,-0.0069,-0.0069,0,0,0,0,0,0,0,0,0,0,0,-0.0078,-0.0078,-0.0078,-0.0079,-0.0085,-0.0085,-0.0069,-0.007,0,0,0,0,0,0,0,0,0,0,-0.0067,-0.007,-0.0078,-0.0078,-0.0079,-0.0085,-0.0085,-0.0071,-0.007,-0.006,0,-0.0063,0,-0.0065,-0.0067,-0.0067,0,0,0,-0.0078,-0.007,-0.0072,-0.0078,-0.0079,-0.0085,-0.0082,-0.0071,-0.007,-0.0059,-0.0063,-0.0062,-0.0065,-0.0067,-0.0067,-0.0048,-0.0048,0,0,-0.0078,-0.0078,-0.0072,-0.0072,-0.0083,-0.0082,-0.0082,-0.0071,-0.007,-0.0063,-0.0062,-0.0065,-0.0067,-0.0067,-0.0048,-0.0048,0,0,0,-0.0078,-0.0077,-0.008,-0.0072,-0.0075,-0.0082,-0.0083,-0.0071,-0.0072,-0.0062,-0.0064,-0.0067,-0.0067,-0.0048,-0.0048,-0.0036,0,0,0,-0.0077,-0.0077,-0.0079,-0.0079,-0.0075,-0.0076,-0.0083,-0.0073,-0.0071,-0.0064,-0.0067,-0.0066,-0.0048,-0.0048,-0.0036,-0.0011,0,0,0,-0.0077,-0.0077,-0.0079,-0.0079,-0.0082,-0.0077,-0.0077,-0.0073,-0.0073,-0.0067,-0.0066,-0.0048,-0.0048,-0.0036,-0.0012,-0.0015,0,0,0,-0.0075,-0.0057,-0.0079,-0.0056,-0.0082,-0.0059,-0.0077,-0.0066,-0.006,-0.0067,-0.0048,-0.0048,-0.0037,-0.0013,-0.0015,0.0035,0,0,0,-0.0044,-0.0053,-0.0037,-0.0056,-0.0024,-0.0058,-0.0036,-0.0044,-0.0056,-0.005,-0.005,-0.0036,-0.0012,-0.0015,0.0039,0,0,0,0,-0.0021,-0.0012,-0.0004,0.0004,0.0007,-0.0,-0.0015,-0.0032,-0.0045,-0.0053,-0.0038,-0.0023,-0.0025,0.0002,-0.0048,-0.0048,-0.0048,-0.0048,-0.0048,0.0021,0.0024,0.0053,0.0054,0.0059,0.0037,0.0026,-0.0002,-0.0017,-0.0031,-0.0015,-0.0007,0.0021,-0.0028,-0.0028,-0.0028,-0.0028,-0.0028,-0.0028,0.0072,0.0087,0.0086,0.0112,0.0097,0.0102,0.0065,0.0035,0.0011,-0.0005,-0.0009,0.0011,-0.0026,-0.0027,-0.0027,-0.0027,-0.0027,-0.0027,-0.0027,0.0098,0.0105,0.0117,0.0141,0.0148,0.013,0.0131,0.0086,0.0039,0.0032,0.005,0.0004,0.0005,0.0022,0.0022,0.0023,0.0023,0.0023,0.0023,0.0111,0.0126,0.0146,0.0167,0.018,0.0187,0.0165,0.0152,0.0101,0.0086,0.0039,0.001,0.0008,0.0008,0.0024,0.0024,0.0024,0.0024,0.0024,0.0134,0.0133,0.0168,0.0185,0.0221,0.0231,0.0218,0.0205,0.0187,0.0164,0.0104,0.0099,0.0101,0.0098,0.0101,0.0145,0.0146,0.0146,0,0.0139,0.0144,0.0182,0.0215,0.0254,0.0255,0.0274,0.0261,0.0199,0.0194,0.0161,0.0093,0.009,0.0091,0.0089,0.0093,0,0,0,0.0144,0.0155,0.0183,0.0222,0.0267,0.0281,0.0281,0.0278,0.0208,0.0223,0.0164,0.016,0.0109,0.0029,0.0022,0.002,0.0019,0,0]}]]